Theta_e
280 282 282 282 284 285 286 286 287 291 292 293 293 294 295 296 297 298 299 302 305 307 308 316 326 328 328
278 279 280 282 282 282 284 286 285 288 291 291 292 293 293 294 295 297 299 300 302 304 306 309 318 326 327
277 280 280 281 281 282 282 283 285 288 290 291 292 293 294 295 296 298 299 301 303 305 306 309 313 321 325
278 278 279 280 280 279 279 282 282 285 288 289 291 292 294 294 295 296 297 298 299 300 304 308 310 316 321
277 278 278 278 277 279 279 280 281 283 284 285 286 287 288 291 292 294 295 295 296 299 302 308 310 313 317
278 277 277 278 279 279 279 278 276 284 282 283 286 285 288 290 294 297 297 299 299 299 301 308 310 312 314
281 281 279 280 280 279 279 279 278 282 282 280 285 285 288 291 294 295 297 299 301 302 303 307 309 311 311
283 283 284 283 282 282 280 280 282 282 284 279 283 283 286 288 292 293 297 298 299 302 305 306 308 308 309
288 288 287 287 286 283 280 279 277 279 283 282 282 282 284 285 287 294 295 297 299 302 304 304 306 306 307
284 286 288 287 288 285 281 278 278 277 282 281 281 282 279 285 289 292 294 296 298 301 304 306 306 307 307
282 283 284 284 285 284 285 281 279 279 283 284 282 281 281 282 286 289 290 290 292 302 305 305 305 306 304
281 282 282 282 283 283 284 285 284 282 285 284 281 284 283 281 281 286 287 287 288 290 302 305 305 306 306
283 284 283 283 283 283 283 284 285 284 285 285 285 284 284 281 281 283 285 285 287 289 298 300 301 301 299
283 283 283 282 281 282 281 282 281 282 284 285 285 285 281 282 282 280 283 283 285 290 297 296 297 297 297
282 282 282 281 281 282 281 281 279 279 280 283 282 282 280 280 275 280 283 284 285 286 291 289 290 292 292
283 283 281 280 280 281 281 280 278 279 279 281 280 277 277 278 285 280 281 284 284 285 288 286 285 288 291
282 280 282 281 280 280 279 278 278 279 278 281 279 275 271 271 282 287 283 284 284 284 286 286 285 286 289
Wind_Speed
13 13 16 17 15 15 15 14 13 26 27 27 25 25 25 26 27 27 25 23 23 21 17 16 16 20 23
15 13 16 16 16 17 14 13 14 21 28 28 28 28 28 28 27 27 26 23 24 24 19 18 17 19 24
15 12 12 11 14 14 14 14 13 23 28 28 29 30 28 27 27 26 24 22 19 19 18 16 17 16 21
14 14 12 12 12 12 12 11 12 12 18 21 23 23 23 23 24 23 22 23 23 25 20 15 13 15 17
15 14 13 12 13 11 11 11 12 11 11 10 9 10 11 18 21 24 26 27 26 25 22 16 14 17 14
16 17 19 15 13 12 11 10 11 9 12 11 9 11 10 8 16 18 19 20 23 23 22 17 15 14 12
21 16 17 16 15 16 14 13 11 9 10 11 8 9 8 8 14 17 19 17 17 20 23 15 14 14 13
20 19 19 14 17 16 16 14 11 10 10 11 7 9 9 8 17 23 19 17 19 19 18 14 17 16 14
35 36 33 33 21 11 11 10 10 10 9 9 7 8 9 9 10 19 19 17 19 18 19 18 18 14 11
15 20 28 24 30 18 11 11 9 9 8 8 7 6 5 6 4 4 5 12 15 16 19 23 21 10 8
15 14 14 15 12 13 14 12 9 9 6 4 4 7 7 7 2 2 4 4 5 7 17 22 23 16 10
13 13 13 12 12 13 14 9 11 11 6 9 4 5 2 2 3 2 4 4 3 5 6 16 24 20 21
10 11 13 12 11 9 9 10 10 11 9 11 5 3 2 1 3 3 8 4 4 5 6 9 9 11 15
2 4 5 6 7 7 7 7 7 7 10 11 6 5 1 2 3 5 6 5 6 3 7 7 8 10 9
3 5 6 7 8 7 7 6 6 6 3 5 5 4 1 2 2 5 6 7 4 4 11 9 6 11 11
3 6 8 7 7 7 5 5 5 5 6 5 5 2 0 3 6 4 3 4 3 4 7 12 8 7 11
2 3 3 6 10 6 5 5 4 5 3 4 4 3 3 3 2 4 4 1 1 3 3 11 12 9 14
Wind_Direction
279 283 282 281 282 281 281 280 278 277 278 280 279 279 280 280 280 280 279 279 284 287 288 281 259 218 212
272 272 270 273 275 277 275 272 276 278 281 280 279 275 273 273 273 273 272 276 277 279 282 285 276 241 223
271 270 270 270 273 272 272 270 270 272 270 269 268 265 266 264 263 264 268 268 277 282 276 274 276 260 215
261 263 260 257 259 269 268 265 270 271 276 277 278 282 275 273 271 270 271 273 271 274 276 272 272 246 209
254 256 253 250 247 251 259 266 266 269 272 272 269 271 268 262 257 254 257 260 261 263 267 266 267 235 203
249 246 246 245 243 248 250 254 268 256 263 261 253 260 256 245 253 249 255 251 250 251 257 253 252 218 185
261 246 244 239 236 240 241 243 247 258 261 273 270 277 281 275 288 282 273 267 275 258 245 240 232 193 170
256 252 251 234 240 239 242 246 250 251 252 268 272 276 287 282 279 273 278 273 267 265 249 251 211 180 162
256 251 247 250 227 230 237 234 242 248 250 255 261 271 264 266 266 261 270 269 269 263 232 239 194 163 151
264 254 248 241 242 229 218 224 231 248 247 250 254 261 275 236 251 250 274 275 277 259 218 206 178 161 150
264 250 228 224 219 228 218 211 213 232 235 235 244 244 247 277 309 297 275 288 295 261 212 188 172 156 145
253 246 214 204 202 214 215 211 217 213 217 241 244 288 339 283 261 305 309 278 265 278 196 186 165 174 156
261 232 201 194 185 195 201 201 202 219 219 232 253 259 294 299 322 328 325 317 323 280 168 176 160 150 134
329 70 115 147 179 183 186 189 200 206 203 220 212 253 74 341 343 313 313 307 321 288 145 134 134 128 142
207 171 175 177 180 180 181 176 194 198 193 180 198 217 257 236 304 292 315 308 319 302 118 109 100 124 123
301 196 179 175 174 169 167 174 181 180 183 180 160 130 123 290 228 280 289 296 332 343 152 112 98 101 120
334 14 129 157 155 146 154 165 168 171 166 170 162 145 155 206 156 251 259 338 23 33 89 116 118 115 113